[[{"header":{"parameterUnit":"m.s-1","parameterCategory":1,"la1":30.2991,"la2":30.254,"lo1":-89.0895,"lo2":-89.0444,"dy":0.0017,"dx":0.0017,"nx":28,"ny":28,"refTime":"2023-10-07T03:00:00:Z","depth":0,"parameterNumber":2,"parameterNumberName":"U-component_of_WINDS"},"data":[0,0,0,0,0,0,0,0,0,0,0,0,0,0,0,0,0,0,0,0,0,0,0,0,0,0,0,0,0,0,0,0,0,0,0,0,0,0,0,0,0,0,0,0,0,0,0,0,0,0,0,0,0,0,0,0,0,0,-1.9478,-1.9479,0,-1.9507,-1.9507,-1.9507,-1.9431,-1.9429,-1.9427,-1.9424,-1.9454,-1.9457,-1.946,0,0,0,0,0,0,0,0,0,0,0,0,0,-1.9358,-1.9361,-1.9478,-1.9479,-1.9479,-1.9507,-1.9507,-1.9507,-1.9432,-1.9429,-1.9426,-1.9423,-1.9453,-1.9457,-1.946,0,0,0,0,0,0,0,0,0,0,0,0,0,-1.9401,-1.9362,-1.9478,-1.9445,-1.9442,-1.9507,-1.9507,-1.9507,-1.9432,-1.9429,-1.9425,-1.9422,-1.9452,-1.9456,-1.9461,-1.956,0,0,-1.9475,-1.9477,0,0,0,0,0,0,0,0,-1.9399,-1.9405,-1.9449,-1.9447,-1.9444,-1.9462,-1.9475,-1.9525,-1.9433,-1.9436,-1.9424,-1.942,-1.946,-1.9463,-1.9476,-1.9561,-1.9562,-1.9475,-1.9478,-1.948,-1.9481,0,0,0,0,0,0,0,-1.9396,-1.9404,-1.949,-1.945,-1.9447,-1.9428,-1.943,-1.9484,-1.9467,-1.9436,-1.943,-1.9434,-1.9458,-1.9472,-1.9477,-1.9563,-1.9475,-1.9479,-1.9482,-1.9483,-1.9728,-1.9731,0,0,0,0,0,0,-1.9397,-1.9402,-1.9489,-1.949,-1.9412,-1.9433,-1.9435,-1.946,-1.9467,-1.9464,-1.9437,-1.9431,-1.9466,-1.9471,-1.9477,-1.9593,-1.948,-1.9484,-1.9486,-1.9724,-1.9729,-1.9733,0,0,0,0,0,0,-1.9395,-1.9406,-1.9488,-1.9445,-1.9454,-1.9439,-1.9467,-1.9462,-1.9477,-1.9468,-1.9465,-1.9456,-1.9464,-1.9471,-1.9539,-1.9593,-1.9486,-1.949,-1.972,-1.9725,-1.9731,-1.9825,0,0,0,0,0,0,-1.9392,-1.9405,-1.9443,-1.9446,-1.9456,-1.955,-1.947,-1.9465,-1.9485,-1.9476,-1.9484,-1.9482,-1.9462,-1.9533,-1.9544,-1.9597,-1.9493,-1.9715,-1.9722,-1.9729,-1.9817,-1.9833,-1.9847,0,0,0,0,0,-1.9388,-1.9469,-1.9445,-1.9456,-1.9503,-1.9553,-1.9559,-1.9533,-1.9489,-1.9527,-1.9521,-1.9482,-1.9585,-1.9541,-1.9552,-1.9608,-1.9711,-1.972,-1.9728,-1.981,-1.983,-1.9847,0,0,0,0,0,0,-1.9474,-1.9469,-1.9443,-1.9527,-1.9541,-1.954,-1.9587,-1.9555,-1.9582,-1.9573,-1.954,-1.9542,-1.9617,-1.9618,-1.9569,-1.9703,-1.964,-1.9652,-1.9699,-1.9718,-1.9732,-1.9731,-1.9497,0,0,0,0,0,-1.9502,-1.9543,-1.9537,-1.9612,-1.962,-1.9603,-1.9623,-1.9602,-1.9615,-1.9621,-1.962,-1.9634,-1.9669,-1.9693,-1.9725,-1.9816,-1.9817,-1.986,-1.9875,-1.9887,-1.9898,-1.9945,-1.9964,-1.9761,-1.9761,-1.9761,0,0,-1.9563,-1.9565,-1.9593,-1.9629,-1.9637,-1.968,-1.9608,-1.9657,-1.9688,-1.9628,-1.9692,-1.9692,-1.9705,-1.9785,-1.9821,-1.9789,-1.9954,-1.9898,-1.9908,-1.9912,-1.9956,-1.9975,-1.9992,-1.9767,-1.9766,-1.9765,0,0,-1.9694,-1.97,-1.9763,-1.9772,-1.9785,-1.9772,-1.9787,-1.979,-1.9788,-1.9851,-1.9807,-1.9843,-1.9905,-1.9916,-1.993,-2.0063,-2.0028,-2.0074,-2.0153,-2.02,-2.0216,-2.023,-2.0277,-2.0294,-2.0084,-2.0084,-2.0084,0,-1.9768,-1.983,-1.9799,-1.9851,-1.9868,-1.9814,-1.9877,-1.9887,-1.991,-1.9923,-1.9888,-1.9963,-1.9968,-2.005,-2.0082,-2.0095,-2.0111,-2.0074,-2.0216,-2.0229,-2.0242,-2.0287,-2.0305,-2.009,-2.0089,-2.0089,-2.0088,0,-1.992,-1.9964,-2.0013,-2.0035,-2.0058,-2.0115,-2.0092,-2.0118,-2.0094,-2.0085,-2.015,-2.0154,-2.0186,-2.0203,-2.0181,-2.0281,-2.0261,-2.0221,-2.0158,-2.0268,-2.0309,-2.0326,-2.0098,-2.0096,-2.0094,-2.0093,0,0,-2.0109,-2.0111,-2.013,-2.0139,-2.0148,-2.0181,-2.0235,-2.0265,-2.0288,-2.0305,-2.0349,-2.0401,-2.0364,-2.0379,-2.0357,-2.0398,-2.0503,-2.0353,-2.0353,-2.0381,-2.0613,-2.0644,-2.0664,-2.0479,-2.0482,-2.0484,-2.0612,0,-2.0239,-2.0331,-2.0304,-2.0397,-2.0437,-2.0385,-2.0431,-2.0442,-2.0434,-2.0466,-2.0457,-2.0495,-2.0443,-2.0451,-2.0489,-2.0482,-2.0549,-2.0472,-2.052,-2.0522,-2.052,-2.0686,-2.0719,-2.084,-2.0628,-2.0631,-2.0633,0,-2.0403,-2.0425,-2.0522,-2.0523,-2.0538,-2.0581,-2.0605,-2.0637,-2.0647,-2.0638,-2.0655,-2.0623,-2.0676,-2.0611,-2.0683,-2.0631,-2.0648,-2.0648,-2.0652,-2.0656,-2.0585,-2.0696,-2.0878,-2.0896,-2.0658,-2.0656,-2.0654,0,-2.0532,-2.0586,-2.065,-2.0659,-2.0662,-2.0693,-2.0695,-2.0701,-2.072,-2.0741,-2.0753,-2.0781,-2.0796,-2.0817,-2.0794,-2.0749,-2.0869,-2.0803,-2.0863,-2.0864,-2.0892,-2.0891,-2.108,-2.0902,-2.0902,-2.0901,-2.0901,0,-2.0681,-2.0742,-2.0708,-2.0748,-2.0814,-2.0782,-2.0848,-2.0845,-2.085,-2.0888,-2.0844,-2.0881,-2.0847,-2.0881,-2.0863,-2.0924,-2.0931,-2.0926,-2.0921,-2.093,-2.0931,-2.0942,-2.0934,-2.0906,-2.0905,-2.0904,-2.0903,0,-2.0837,-2.0816,-2.0883,-2.0879,-2.0879,-2.0928,-2.0924,-2.0961,-2.0949,-2.0997,-2.1007,-2.0988,-2.1025,-2.1003,-2.1041,-2.1028,-2.1109,-2.1091,-2.1106,-2.1101,-2.1163,-2.1158,-2.1367,-2.1392,-2.1197,-2.1199,-2.1201,0,-2.0934,-2.0979,-2.0979,-2.1001,-2.1006,-2.1042,-2.1061,-2.1029,-2.1051,-2.1064,-2.1099,-2.1131,-2.1156,-2.1217,-2.1207,-2.1235,-2.1219,-2.129,-2.1223,-2.1231,-2.122,-2.1218,-2.1222,-2.1304,-2.1306,-2.1308,-2.131,0,-2.1108,-2.1095,-2.1123,-2.1148,-2.1172,-2.119,-2.1205,-2.1225,-2.1193,-2.1219,-2.1256,-2.1275,-2.1312,-2.1345,-2.1369,-2.137,-2.1335,-2.133,-2.1346,-2.1357,-2.1364,-2.1361,-2.1143,-2.1326,-2.1325,-2.1323,-2.1322,-2.1322,-2.1237,-2.1275,-2.128,-2.1313,-2.132,-2.1335,-2.1368,-2.1359,-2.1389,-2.1417,-2.1396,-2.1439,-2.1446,-2.1474,-2.148,-2.1513,-2.1484,-2.1507,-2.1513,-2.1519,-2.1528,-2.1357,-2.1517,-2.1517,-2.1516,-2.1516,-2.1515,0,-2.1409,-2.1409,-2.144,-2.1461,-2.1487,-2.1449,-2.1463,-2.1487,-2.1526,-2.1534,-2.1559,-2.16,-2.1631,-2.1623,-2.165,-2.1678,-2.1663,-2.1687,-2.1685,-2.1686,-2.1552,-2.1536,-2.1699,-2.1699,-2.1699,-2.1699,-2.1699,-2.1699,-2.1502,-2.1563,-2.1551,-2.1615,-2.1614,-2.1656,-2.1667,-2.1679,-2.1686,-2.1734,-2.1759,-2.1753,-2.1755,-2.1782,-2.1808,-2.1805,-2.1817,-2.1847,-2.1838,-2.1714,-2.1695,-2.1678,-2.1663,-2.185,-2.1851,-2.197,-2.1971,-2.1972]},{"header":{"parameterUnit":"m.s-1","parameterCategory":1,"la1":30.2991,"la2":30.254,"lo1":-89.0895,"lo2":-89.0444,"dy":0.0017,"dx":0.0017,"nx":28,"ny":28,"refTime":"2023-10-07T03:00:00:Z","depth":0,"parameterNumber":3,"parameterNumberName":"V-component_of_WINDS"},"data":[0,0,0,0,0,0,0,0,0,0,0,0,0,0,0,0,0,0,0,0,0,0,0,0,0,0,0,0,0,0,0,0,0,0,0,0,0,0,0,0,0,0,0,0,0,0,0,0,0,0,0,0,0,0,0,0,0,0,-7.3389,-7.339,0,-7.352,-7.3522,-7.3523,-7.3408,-7.3403,-7.3398,-7.3394,-7.3522,-7.3529,-7.3537,0,0,0,0,0,0,0,0,0,0,0,0,0,-7.303,-7.3037,-7.3388,-7.339,-7.3392,-7.352,-7.3522,-7.3524,-7.3408,-7.3403,-7.3397,-7.3392,-7.3519,-7.3528,-7.3538,0,0,0,0,0,0,0,0,0,0,0,0,0,-7.3176,-7.3039,-7.3388,-7.335,-7.3348,-7.352,-7.3522,-7.3524,-7.341,-7.3403,-7.3395,-7.3389,-7.3516,-7.3527,-7.3539,-7.3753,0,0,-7.3575,-7.358,0,0,0,0,0,0,0,0,-7.3168,-7.3189,-7.3354,-7.3353,-7.3351,-7.344,-7.3442,-7.3601,-7.3411,-7.3386,-7.3394,-7.3385,-7.35,-7.3513,-7.3553,-7.3759,-7.3765,-7.3576,-7.3583,-7.3588,-7.3591,0,0,0,0,0,0,0,-7.3158,-7.3183,-7.344,-7.3356,-7.3355,-7.3324,-7.3337,-7.3472,-7.3481,-7.3388,-7.338,-7.3397,-7.3498,-7.3542,-7.3555,-7.3767,-7.3576,-7.3586,-7.3593,-7.3598,-7.4153,-7.4161,0,0,0,0,0,0,-7.3152,-7.3175,-7.3436,-7.3444,-7.324,-7.3336,-7.335,-7.3419,-7.3479,-7.3482,-7.3403,-7.3391,-7.3525,-7.3541,-7.3559,-7.3813,-7.3588,-7.3599,-7.3606,-7.4146,-7.4155,-7.4163,0,0,0,0,0,0,-7.3145,-7.3177,-7.3431,-7.3308,-7.3338,-7.335,-7.3427,-7.3425,-7.3469,-7.3491,-7.3491,-7.3447,-7.352,-7.3542,-7.3706,-7.3816,-7.3604,-7.3615,-7.4137,-7.4149,-7.4159,-7.4323,0,0,0,0,0,0,-7.3135,-7.3175,-7.3259,-7.3311,-7.3345,-7.3579,-7.3434,-7.3433,-7.349,-7.3476,-7.3532,-7.3534,-7.3516,-7.3689,-7.3718,-7.3828,-7.3624,-7.4127,-7.4142,-7.4156,-7.4308,-7.4339,-7.4365,0,0,0,0,0,-7.3123,-7.3298,-7.3263,-7.3296,-7.345,-7.3585,-7.3605,-7.3582,-7.35,-7.3582,-7.3596,-7.3533,-7.3799,-7.3707,-7.3738,-7.3853,-7.412,-7.4138,-7.4155,-7.4295,-7.4333,-7.4365,0,0,0,0,0,0,-7.3257,-7.3304,-7.3266,-7.3464,-7.3522,-7.3566,-7.3669,-7.3623,-7.3704,-7.3687,-7.3653,-7.3667,-7.3839,-7.3862,-7.3759,-7.4063,-7.3946,-7.397,-7.4042,-7.4078,-7.4106,-7.4097,-7.3634,0,0,0,0,0,-7.331,-7.3418,-7.3453,-7.3624,-7.3655,-7.3658,-7.3716,-7.3694,-7.3751,-7.3774,-7.38,-7.3856,-7.3952,-7.4016,-7.4106,-7.431,-7.432,-7.4405,-7.4434,-7.4457,-7.4479,-7.4587,-7.4625,-7.4221,-7.422,-7.422,0,0,-7.3419,-7.3459,-7.3529,-7.3652,-7.3694,-7.3805,-7.3679,-7.3801,-7.3883,-7.3792,-7.3949,-7.397,-7.4029,-7.4215,-7.4297,-7.4239,-7.4592,-7.4479,-7.4498,-7.4507,-7.4609,-7.4647,-7.4681,-7.4232,-7.423,-7.4228,0,0,-7.3676,-7.3718,-7.3864,-7.3909,-7.3975,-7.3976,-7.4011,-7.4062,-7.4073,-7.423,-7.4164,-7.4258,-7.4425,-7.4471,-7.4516,-7.4788,-7.4732,-7.4818,-7.4968,-7.5074,-7.5106,-7.5134,-7.5231,-7.5266,-7.4839,-7.484,-7.484,0,-7.3803,-7.397,-7.3945,-7.4073,-7.4128,-7.4053,-7.4199,-7.4243,-7.4335,-7.4373,-7.4307,-7.4514,-7.4549,-7.4744,-7.481,-7.4849,-7.4887,-7.4812,-7.5104,-7.5132,-7.5158,-7.5249,-7.5286,-7.485,-7.4849,-7.4848,-7.4847,0,-7.4123,-7.424,-7.4349,-7.4442,-7.4509,-7.4646,-7.4639,-7.4709,-7.4681,-7.4687,-7.4847,-7.4887,-7.4983,-7.5027,-7.4999,-7.5217,-7.5179,-7.5109,-7.4991,-7.5207,-7.5292,-7.5327,-7.4864,-7.4861,-7.4858,-7.4855,0,0,-7.4468,-7.4545,-7.4586,-7.4626,-7.4693,-7.4781,-7.4913,-7.5009,-7.507,-7.5135,-7.5243,-7.5386,-7.5322,-7.5373,-7.5349,-7.5443,-7.5655,-7.5361,-7.5362,-7.5414,-7.5896,-7.5948,-7.5989,-7.5618,-7.5625,-7.563,-7.589,0,-7.4727,-7.496,-7.494,-7.5159,-7.5265,-7.5195,-7.5309,-7.5362,-7.5371,-7.546,-7.5469,-7.5571,-7.5479,-7.5509,-7.5598,-7.5611,-7.5751,-7.5592,-7.5717,-7.5722,-7.5705,-7.6034,-7.6089,-7.6333,-7.5924,-7.5929,-7.5933,0,-7.5061,-7.5139,-7.537,-7.542,-7.5464,-7.5568,-7.5653,-7.5741,-7.5797,-7.5797,-7.5854,-7.5815,-7.5945,-7.5824,-7.6001,-7.5893,-7.5943,-7.5957,-7.5965,-7.5976,-7.5841,-7.6053,-7.641,-7.6447,-7.5986,-7.5982,-7.5978,0,-7.5289,-7.5452,-7.5611,-7.5648,-7.571,-7.5785,-7.5814,-7.5863,-7.5922,-7.5996,-7.6033,-7.6121,-7.6168,-7.6236,-7.622,-7.6133,-7.6401,-7.6279,-7.6403,-7.6404,-7.6463,-7.6459,-7.6833,-7.6496,-7.6495,-7.6494,-7.6494,0,-7.558,-7.5723,-7.5714,-7.5812,-7.597,-7.5945,-7.6101,-7.612,-7.6165,-7.6263,-7.6206,-7.6299,-7.6273,-7.6364,-7.6352,-7.65,-7.6522,-7.6524,-7.6519,-7.6529,-7.6529,-7.6561,-7.6544,-7.6504,-7.6502,-7.65,-7.6498,0,-7.5862,-7.5862,-7.603,-7.6076,-7.609,-7.6205,-7.6242,-7.6333,-7.6337,-7.6463,-7.649,-7.6497,-7.6601,-7.6592,-7.6708,-7.67,-7.6883,-7.6858,-7.6865,-7.686,-7.6985,-7.6973,-7.7392,-7.7445,-7.7074,-7.7077,-7.708,0,-7.6048,-7.6157,-7.6214,-7.6278,-7.6312,-7.6414,-7.6474,-7.6452,-7.6516,-7.6589,-7.667,-7.677,-7.6848,-7.7017,-7.7031,-7.7119,-7.7095,-7.7236,-7.7108,-7.7114,-7.7096,-7.709,-7.71,-7.7261,-7.7265,-7.7269,-7.7271,0,-7.6377,-7.6372,-7.6462,-7.6552,-7.6626,-7.6695,-7.6758,-7.6812,-7.6796,-7.6871,-7.6978,-7.7039,-7.7158,-7.7257,-7.7341,-7.7367,-7.7317,-7.7312,-7.7345,-7.7357,-7.7356,-7.7358,-7.6934,-7.7302,-7.7299,-7.7297,-7.7295,-7.7294,-7.6616,-7.671,-7.6765,-7.6867,-7.6912,-7.6972,-7.706,-7.7076,-7.7166,-7.7263,-7.7244,-7.7364,-7.7415,-7.7523,-7.7558,-7.7649,-7.7598,-7.7646,-7.7659,-7.7671,-7.7685,-7.7342,-7.7664,-7.7663,-7.7662,-7.7662,-7.7661,0,-7.6942,-7.6975,-7.7069,-7.716,-7.7239,-7.7187,-7.7253,-7.7323,-7.743,-7.7483,-7.7562,-7.7684,-7.7779,-7.7801,-7.7891,-7.796,-7.7939,-7.7985,-7.7979,-7.7986,-7.7726,-7.7688,-7.8,-7.8,-7.8,-7.8,-7.8,-7.8,-7.7122,-7.7277,-7.7278,-7.7454,-7.7484,-7.7603,-7.7646,-7.77,-7.7743,-7.7882,-7.7962,-7.7976,-7.8016,-7.8109,-7.8193,-7.8196,-7.8232,-7.8287,-7.8281,-7.8038,-7.8004,-7.7972,-7.7936,-7.8295,-7.8295,-7.8532,-7.8535,-7.8536]}]]